Regional Weather Roundup
Issued by NWS

Home | Current Version | Previous Version | Text Only | Print | Product List | Glossary On
Versions: 1 2 3 4 5 6 7 8 9 10 11 12 13 14 15 16 17 18 19 20 21 22 23 24 25 26 27 28 29 30 31 32 33 34 35 36 37 38 39 40 41 42 43 44 45 46 47 48 49 50
000
ASCA42 TJSJ 271210
RWRPR
PUERTO RICO/U.S. VIRGIN ISLANDS HOURLY WEATHER ROUNDUP
NATIONAL WEATHER SERVICE SAN JUAN PR
800 AM AST WED MAY 27 2015

PRZ001-004-271300-
PUERTO RICO

CITY           SKY/WX    TMP DP  RH WIND       PRES   REMARKS
SAN JUAN LMM   MOSUNNY   81  72  74 CALM      29.99R
PONCE          MOSUNNY   77  70  78 E6        29.95
AGUADILLA      MOSUNNY   73  70  88 SE5       30.00R
CEIBA          MOSUNNY   82  70  65 NE6       30.00R
$$

PRZ006-007-271300-
U.S. VIRGIN ISLANDS

CITY           SKY/WX    TMP DP  RH WIND       PRES   REMARKS
CHARLOTTE AMA  SUNNY     81  72  74 E5        29.98R
CHRISTIANSTED  MOSUNNY   81  70  69 E7        29.99R
$$

HOURLY WEATHER ROUNDUP FOR THE NEWS MEDIA

CITY           SKY/WX    TMP DP  RH WIND       PRES   REMARKS
ORLANDO        MOSUNNY   76  67  73 CALM      30.18R
NEW YORK       PTSUNNY   65  59  81 S8        30.20R
NEWARK         CLOUDY    73  66  78 S7        30.17S
CHICAGO        PTSUNNY   64  59  83 W15       29.92R
HARTFORD       CLOUDY    65  59  81 SW16G23   30.21S
BOSTON         PTSUNNY   69  61  75 S13       30.16S
DALLAS         MOCLDY    64  60  87 CALM      30.00R
PHILADELPHIA   CLOUDY    74  67  78 S10       30.17S
LOS ANGELES    CLOUDY    58  54  86 N3        29.98F
WASHINGTON DC  CLOUDY    74  68  81 S12       30.16R


USA.gov is the U.S. government's official web portal to all federal, state and local government web resources and services.